Wheaton, MN

9:42 PM CDT on July 29, 2016 (GMT -0500)
Wheaton Municipal

Weather History for KETH - June, 2013

Change the Weather History Date:

Saturday, June 15, 2013

  Actual Average Record
Temperature  
Mean Temperature 71 °F -  
Max Temperature 80 °F 77 °F 99 °F (1979)
Min Temperature 62 °F 54 °F 33 °F (1999)
Cooling Degree Days 6    
Growing Degree Days 21 (Base 50)    
Moisture  
Dew Point 53 °F    
Average Humidity 58    
Maximum Humidity 94    
Minimum Humidity 30    
Precipitation  
Precipitation 0.00 in - - ()
Sea Level Pressure  
Sea Level Pressure 29.91 in    
Wind  
Wind Speed 6 mph (West)    
Max Wind Speed 14 mph    
Max Gust Speed 20 mph    
Visibility 10 miles    
Events Rain    
Averages and records for this station are not official NWS values.
T = Trace of Precipitation, MM = Missing Value Source: NWS Daily Summary

Daily Weather History Graph

Daily Weather History Graph

Search for Another Location

Airport or City:

Trip Planner

Search our weather history database for the weather conditions in past years. The results will help you decide how hot, cold, wet, or windy it might be!

Date:

Astronomy

Jun. 15, 2013 Rise Set
Actual Time 5:35 AM CDT 9:17 PM CDT
Civil Twilight 4:57 AM CDT 9:56 PM CDT
Nautical Twilight 4:06 AM CDT 10:47 PM CDT
Astronomical Twilight 2:55 AM CDT 11:58 PM CDT
Moon 12:30 PM CDT (6/15) 12:36 AM CDT (6/15)
Length of Visible Light 16h 58m
Length of Day
15h 42m
Waxing Crescent, 40% of the Moon is Illuminated
Jun 15
Waxing Crescent
Jun 16
First Quarter
Jun 23
Full
Jun 29
Last Quarter
Jul 8
New

Hourly Weather History & Observations

Time (CDT) Temp. Dew Point Humidity Pressure Visibility Wind Dir Wind Speed Gust Speed Precip Events Conditions
12:15 AM 71.6 °F 64.4 °F 78% 29.82 in 10.0 mi SSE 4.6 mph - N/A   Clear
12:35 AM 69.8 °F 62.6 °F 78% 29.82 in 10.0 mi SE 5.8 mph - N/A   Clear
12:55 AM 68.0 °F 62.6 °F 83% 29.83 in 10.0 mi SE 3.5 mph - N/A   Clear
1:15 AM 68.0 °F 62.6 °F 83% 29.84 in 10.0 mi SE 3.5 mph - N/A   Clear
1:34 AM 68.0 °F 62.6 °F 83% 29.83 in 10.0 mi SSE 5.8 mph - N/A   Clear
1:54 AM 66.2 °F 62.6 °F 88% 29.86 in 10.0 mi SSE 9.2 mph - N/A   Clear
2:15 AM 66.2 °F 62.6 °F 88% 29.87 in 10.0 mi SSE 8.1 mph - N/A   Clear
2:35 AM 66.2 °F 62.6 °F 88% 29.87 in 10.0 mi WSW 5.8 mph - N/A   Clear
2:55 AM 66.2 °F 62.6 °F 88% 29.88 in 10.0 mi SE 4.6 mph - N/A   Clear
3:14 AM 66.2 °F 62.6 °F 88% 29.88 in 10.0 mi Calm Calm - N/A   Clear
3:35 AM 64.4 °F 62.6 °F 94% 29.87 in 10.0 mi Calm Calm - N/A   Clear
3:54 AM 64.4 °F 62.6 °F 94% 29.86 in 10.0 mi WNW 6.9 mph - N/A   Clear
4:15 AM 66.2 °F 62.6 °F 88% 29.88 in 10.0 mi NW 11.5 mph - N/A   Clear
4:34 AM 64.4 °F 60.8 °F 88% 29.89 in 10.0 mi NW 6.9 mph - N/A   Clear
4:55 AM 64.4 °F 60.8 °F 88% 29.88 in 10.0 mi NNW 11.5 mph 16.1 mph N/A   Clear
5:15 AM 62.6 °F 57.2 °F 82% 29.89 in 10.0 mi NNW 9.2 mph - N/A   Clear
5:34 AM 62.6 °F 57.2 °F 82% 29.90 in 10.0 mi NW 5.8 mph - N/A   Clear
5:55 AM 62.6 °F 55.4 °F 77% 29.92 in 10.0 mi WNW 6.9 mph - N/A   Clear
6:14 AM 62.6 °F 57.2 °F 82% 29.95 in 10.0 mi West 5.8 mph - N/A   Clear
6:34 AM 62.6 °F 55.4 °F 77% 29.96 in 10.0 mi WNW 4.6 mph - N/A   Clear
6:55 AM 62.6 °F 55.4 °F 77% 29.97 in 10.0 mi WNW 4.6 mph - N/A   Clear
7:15 AM 62.6 °F 55.4 °F 77% 29.96 in 10.0 mi WNW 6.9 mph - N/A   Clear
7:35 AM 62.6 °F 55.4 °F 77% 29.95 in 10.0 mi Calm Calm - N/A   Clear
7:55 AM 62.6 °F 55.4 °F 77% 29.92 in 10.0 mi NNW 5.8 mph - N/A   Clear
8:14 AM 64.4 °F 53.6 °F 68% 29.94 in 10.0 mi NW 9.2 mph - N/A   Clear
8:35 AM 66.2 °F 55.4 °F 68% 29.95 in 10.0 mi NW 6.9 mph - N/A   Clear
8:54 AM 66.2 °F 53.6 °F 64% 29.95 in 10.0 mi NW 9.2 mph - N/A   Clear
9:14 AM 68.0 °F 55.4 °F 64% 29.95 in 10.0 mi NW 9.2 mph - N/A   Clear
9:34 AM 68.0 °F 53.6 °F 60% 29.96 in 10.0 mi NNW 5.8 mph - N/A   Clear
9:54 AM 68.0 °F 55.4 °F 64% 29.96 in 10.0 mi NNW 4.6 mph - N/A   Clear
10:14 AM 68.0 °F 55.4 °F 64% 29.97 in 10.0 mi WNW 3.5 mph - N/A   Clear
10:34 AM 66.2 °F 55.4 °F 68% 29.97 in 10.0 mi NW 3.5 mph - N/A   Clear
10:54 AM 66.2 °F 55.4 °F 68% 29.96 in 10.0 mi NNW 4.6 mph - N/A Rain Light Rain
11:14 AM 68.0 °F 55.4 °F 64% 29.96 in 10.0 mi North 3.5 mph - N/A   Clear
11:34 AM 69.8 °F 55.4 °F 60% 29.96 in 10.0 mi North 3.5 mph - N/A   Clear
11:54 AM 71.6 °F 53.6 °F 53% 29.96 in 10.0 mi NNW 5.8 mph - N/A   Clear
12:15 PM 71.6 °F 51.8 °F 50% 29.95 in 10.0 mi NNW 6.9 mph - N/A   Clear
12:34 PM 73.4 °F 51.8 °F 47% 29.95 in 10.0 mi NNW 8.1 mph - N/A   Clear
12:55 PM 73.4 °F 51.8 °F 47% 29.96 in 10.0 mi NW 5.8 mph - N/A   Clear
1:15 PM 73.4 °F 51.8 °F 47% 29.96 in 10.0 mi NW 9.2 mph - N/A   Clear
1:35 PM 73.4 °F 50.0 °F 44% 29.96 in 10.0 mi North 8.1 mph - N/A   Scattered Clouds
1:55 PM 75.2 °F 50.0 °F 41% 29.95 in 10.0 mi Calm Calm - N/A   Clear
2:15 PM 75.2 °F 48.2 °F 38% 29.94 in 10.0 mi West 3.5 mph - N/A   Clear
2:35 PM 75.2 °F 46.4 °F 36% 29.94 in 10.0 mi Calm Calm - N/A   Clear
2:55 PM 75.2 °F 48.2 °F 38% 29.94 in 10.0 mi West 3.5 mph - N/A   Scattered Clouds
3:15 PM 75.2 °F 46.4 °F 36% 29.94 in 10.0 mi West 5.8 mph - N/A   Clear
3:35 PM 78.8 °F 48.2 °F 34% 29.93 in 10.0 mi WSW 6.9 mph - N/A   Clear
3:55 PM 78.8 °F 48.2 °F 34% 29.92 in 10.0 mi WSW 8.1 mph - N/A   Clear
4:14 PM 78.8 °F 46.4 °F 32% 29.92 in 10.0 mi WSW 5.8 mph - N/A   Clear
4:34 PM 78.8 °F 44.6 °F 30% 29.91 in 10.0 mi West 8.1 mph - N/A   Clear
4:54 PM 78.8 °F 44.6 °F 30% 29.91 in 10.0 mi WSW 11.5 mph 16.1 mph N/A   Clear
5:15 PM 78.8 °F 46.4 °F 32% 29.90 in 10.0 mi WSW 11.5 mph - N/A   Clear
5:34 PM 80.6 °F 46.4 °F 30% 29.90 in 10.0 mi WSW 11.5 mph 17.3 mph N/A   Clear
5:54 PM 80.6 °F 46.4 °F 30% 29.89 in 10.0 mi WSW 11.5 mph 16.1 mph N/A   Clear
6:15 PM 80.6 °F 46.4 °F 30% 29.88 in 10.0 mi WSW 11.5 mph - N/A   Clear
6:35 PM 80.6 °F 46.4 °F 30% 29.88 in 10.0 mi WSW 11.5 mph 19.6 mph N/A   Clear
6:54 PM 78.8 °F 48.2 °F 34% 29.87 in 10.0 mi West 11.5 mph 17.3 mph N/A   Clear
7:14 PM 78.8 °F 48.2 °F 34% 29.87 in 10.0 mi WSW 13.8 mph 18.4 mph N/A   Clear
7:34 PM 78.8 °F 48.2 °F 34% 29.87 in 10.0 mi WSW 11.5 mph - N/A   Clear
7:55 PM 78.8 °F 48.2 °F 34% 29.87 in 10.0 mi West 8.1 mph - N/A   Clear
8:14 PM 78.8 °F 46.4 °F 32% 29.87 in 10.0 mi West 8.1 mph 16.1 mph N/A   Clear
8:34 PM 77.0 °F 46.4 °F 34% 29.88 in 10.0 mi WSW 8.1 mph - N/A   Clear
8:54 PM 75.2 °F 46.4 °F 36% 29.88 in 10.0 mi West 6.9 mph - N/A   Clear
9:14 PM 73.4 °F 46.4 °F 38% 29.88 in 10.0 mi WSW 8.1 mph - N/A   Clear
9:34 PM 71.6 °F 46.4 °F 41% 29.89 in 10.0 mi West 8.1 mph - N/A   Clear
9:54 PM 71.6 °F 46.4 °F 41% 29.90 in 10.0 mi West 4.6 mph - N/A   Clear
10:15 PM 68.0 °F 48.2 °F 49% 29.91 in 10.0 mi WSW 5.8 mph - N/A   Clear
10:34 PM 68.0 °F 46.4 °F 46% 29.92 in 10.0 mi WSW 3.5 mph - N/A   Clear
10:55 PM 66.2 °F 48.2 °F 52% 29.92 in 10.0 mi WSW 6.9 mph - N/A   Clear
11:14 PM 66.2 °F 48.2 °F 52% 29.92 in 10.0 mi WSW 6.9 mph - N/A   Clear
11:35 PM 64.4 °F 48.2 °F 56% 29.92 in 10.0 mi WSW 5.8 mph - N/A   Clear
11:55 PM 64.4 °F 48.2 °F 56% 29.93 in 10.0 mi WSW 6.9 mph - N/A   Clear